Weather History for Grand Canyon, AZ

Change the Weather History Date:

Thursday, February 14, 2013

  Actual Average Record
Temperature  
Mean Temperature 26 °F -  
Max Temperature 44 °F 43 °F 64 °F (2014)
Min Temperature 8 °F 17 °F 0 °F (2009)
Degree Days  
Heating Degree Days 39    
Moisture  
Dew Point 13 °F    
Average Humidity 65    
Maximum Humidity 84    
Minimum Humidity 34    
Precipitation  
Precipitation 0.00 in - - ()
Sea Level Pressure  
Sea Level Pressure 30.29 in    
Wind  
Wind Speed 3 mph (NE)    
Max Wind Speed 15 mph    
Max Gust Speed -    
Visibility 10 miles    
Events      
Averages and records for this station are not official NWS values.
T = Trace of Precipitation, MM = Missing Value Source: NWS Daily Summary

Daily Weather History Graph

Daily Weather History Graph

Search for Another Location

Airport:

Trip Planner

Search our weather history database for the weather conditions in past years. The results will help you decide how hot, cold, wet, or windy it might be!

Date:

Astronomy

Feb. 14, 2013 Rise Set
Actual Time 7:16 AM MST 6:09 PM MST
Civil Twilight 6:50 AM MST 6:35 PM MST
Nautical Twilight 6:20 AM MST 7:05 PM MST
Astronomical Twilight 5:50 AM MST 7:35 PM MST
Moon 9:31 AM MST (2/14) 11:04 PM MST (2/14)
Length of Visible Light 11h 45m
Length of Day
10h 52m
Waxing Crescent, 22% of the Moon is Illuminated
Feb 14
Waxing Crescent
Feb 17
First Quarter
Feb 25
Full
Mar 4
Last Quarter
Mar 11
New

Hourly Weather History & Observations

Time (MST) Temp. Windchill Dew Point Humidity Pressure Visibility Wind Dir Wind Speed Gust Speed Precip Events Conditions
12:54 AM 14.0 °F 8.2 °F 9.0 °F 80% 30.24 in 10.0 mi ENE 3.5 mph - N/A   Clear
1:54 AM 12.0 °F - 8.1 °F 84% 30.23 in 10.0 mi Calm Calm - N/A   Clear
2:54 AM 10.9 °F - 7.0 °F 84% 30.21 in 10.0 mi Calm Calm - N/A   Clear
3:54 AM 10.0 °F - 5.0 °F 80% 30.22 in 10.0 mi Calm Calm - N/A   Clear
4:54 AM 8.1 °F - 3.9 °F 83% 30.22 in 10.0 mi Calm Calm - N/A   Clear
5:54 AM 8.1 °F - 3.9 °F 83% 30.26 in 10.0 mi Calm Calm - N/A   Clear
6:54 AM 10.0 °F 1.8 °F 6.1 °F 84% 30.30 in 10.0 mi ENE 4.6 mph - N/A   Clear
7:54 AM 10.9 °F - 7.0 °F 84% 30.34 in 10.0 mi Calm Calm - N/A   Clear
8:54 AM 23.0 °F 17.0 °F 15.1 °F 72% 30.30 in 10.0 mi NE 4.6 mph - N/A   Clear
9:54 AM 37.0 °F 31.0 °F 18.0 °F 46% 30.26 in 10.0 mi ENE 8.1 mph - N/A   Clear
10:54 AM 41.0 °F 34.3 °F 16.0 °F 36% 30.28 in 10.0 mi NE 11.5 mph - N/A   Clear
11:54 AM 39.9 °F 31.8 °F 17.1 °F 40% 30.28 in 10.0 mi ENE 15.0 mph - N/A   Clear
12:54 PM 43.0 °F 37.7 °F 16.0 °F 34% 30.25 in 10.0 mi NE 9.2 mph - N/A   Clear
1:54 PM 42.1 °F 37.1 °F 17.1 °F 37% 30.27 in 10.0 mi ENE 8.1 mph - N/A   Clear
2:54 PM 43.0 °F 37.7 °F 17.1 °F 35% 30.27 in 10.0 mi NE 9.2 mph - N/A   Clear
3:54 PM 44.1 °F 42.5 °F 17.1 °F 34% 30.27 in 10.0 mi Variable 3.5 mph - N/A   Clear
4:54 PM 42.1 °F 37.1 °F 18.0 °F 38% 30.28 in 10.0 mi NNE 8.1 mph - N/A   Clear
5:54 PM 37.9 °F 32.7 °F 18.0 °F 45% 30.31 in 10.0 mi ENE 6.9 mph - N/A   Clear
6:54 PM 28.0 °F - 18.0 °F 66% 30.36 in 10.0 mi Calm Calm - N/A   Clear
7:54 PM 24.1 °F - 17.1 °F 75% 30.38 in 10.0 mi Calm Calm - N/A   Clear
8:54 PM 19.9 °F - 15.1 °F 81% 30.35 in 10.0 mi Calm Calm - N/A   Clear
9:54 PM 19.0 °F - 14.0 °F 81% 30.32 in 10.0 mi Calm Calm - N/A   Clear
10:54 PM 18.0 °F 12.7 °F 14.0 °F 84% 30.32 in 10.0 mi ENE 3.5 mph - N/A   Clear
11:54 PM 16.0 °F - 12.0 °F 84% 30.35 in 10.0 mi Calm Calm - N/A   Clear